EW4330 Weather Reports


time (UTC)temp
C
wind
direction
speed
KPH
gust
KPH
rain 1hr
cm
rain 24hr
cm
rain mn
cm
humidity
%
barometer
mb
20260508020509 15 228 3.2 8.0 0.00 0.05 0.00 63 1011.0
20260508020007 15 223 4.8 8.0 0.00 0.08 0.00 62 1011.0
20260508015008 15 223 4.8 9.7 0.00 0.10 0.00 61 1011.0
20260508014007 15 234 4.8 8.0 0.00 0.13 0.00 61 1011.0
20260508013508 15 245 3.2 8.0 0.00 0.13 0.00 61 1011.0
20260508013008 15 272 4.8 9.7 0.00 0.13 0.00 60 1011.0
20260508012509 15 213 4.8 8.0 0.00 0.13 0.00 60 1011.0
20260508012008 15 245 3.2 8.0 0.00 0.13 0.00 60 1011.0
20260508011507 15 249 3.2 4.8 0.00 0.13 0.00 60 1011.0
20260508011007 15 246 3.2 4.8 0.00 0.13 0.00 59 1011.0
20260508010509 15 250 3.2 8.0 0.00 0.13 0.00 59 1011.0
20260508010007 15 226 3.2 8.0 0.00 0.13 0.00 59 1011.0
20260508005507 15 255 4.8 8.0 0.00 0.13 0.00 58 1011.0
20260508005007 15 240 3.2 4.8 0.00 0.13 0.00 58 1011.0
20260508004508 15 258 1.6 4.8 0.00 0.18 0.00 58 1011.0
20260508003507 15 260 1.6 4.8 0.00 0.28 0.00 58 1011.0
20260508003008 15 248 3.2 4.8 0.00 0.33 0.00 58 1011.0
20260508002508 15 256 3.2 4.8 0.00 0.36 0.00 57 1010.0
20260508002008 15 243 3.2 4.8 0.00 0.38 0.00 58 1010.0
20260508001507 15 230 3.2 4.8 0.00 0.41 0.00 58 1010.0
20260508001007 15 252 3.2 4.8 0.00 0.43 0.00 58 1010.0
20260508000509 15 284 3.2 4.8 0.00 0.46 0.00 58 1010.0
20260508000007 15 288 3.2 4.8 0.00 0.46 0.00 59 1010.0
20260507235507 15 237 3.2 4.8 0.00 0.46 0.00 59 1011.0
20260507235008 16 143 1.6 8.0 0.00 0.48 0.00 59 1011.0
20260507233507 16 246 3.2 9.7 0.00 0.51 0.00 61 1011.0
20260507233006 16 239 4.8 9.7 0.00 0.51 0.00 61 1011.0
20260507232007 15 251 3.2 8.0 0.00 0.51 0.00 62 1011.0
20260507231506 15 257 3.2 4.8 0.00 0.51 0.00 63 1011.0
20260507230006 15 223 4.8 8.0 0.00 0.53 0.00 63 1012.0
20260507225007 15 213 3.2 9.7 0.00 0.53 0.00 64 1012.0
20260507224508 15 237 3.2 4.8 0.00 0.53 0.00 64 1012.0
20260507224007 15 252 3.2 4.8 0.00 0.53 0.00 64 1012.0
20260507223507 15 239 3.2 4.8 0.00 0.53 0.00 64 1012.0
20260507222508 15 234 3.2 3.2 0.00 0.56 0.00 65 1013.0
20260507222006 15 266 1.6 4.8 0.00 0.56 0.00 65 1013.0
20260507221507 15 250 3.2 4.8 0.00 0.58 0.00 65 1013.0
20260507221007 15 231 3.2 8.0 0.00 0.58 0.00 65 1013.0
20260507220509 15 215 1.6 3.2 0.00 0.61 0.00 65 1013.0
20260507220006 15 244 3.2 8.0 0.00 0.61 0.00 65 1013.0
20260507215507 15 241 4.8 8.0 0.00 0.61 0.53 65 1013.0
20260507215009 15 235 1.6 4.8 0.00 0.64 0.53 65 1013.0
20260507214508 15 276 3.2 4.8 0.00 0.64 0.53 65 1013.0
20260507214007 15 247 1.6 4.8 0.00 0.64 0.53 65 1012.0
20260507213507 15 230 3.2 4.8 0.00 0.64 0.53 64 1012.0
20260507213006 15 0 1.6 4.8 0.00 0.66 0.53 64 1012.0
20260507212508 15 210 1.6 3.2 0.00 0.66 0.53 64 1012.0
20260507212007 15 255 1.6 4.8 0.00 0.69 0.53 63 1012.0
20260507211506 15 231 3.2 4.8 0.00 0.69 0.53 63 1012.0
20260507211007 15 202 3.2 4.8 0.00 0.69 0.53 62 1012.0
20260507205507 15 239 3.2 4.8 0.00 0.71 0.53 61 1012.0
20260507205008 15 162 3.2 4.8 0.00 0.71 0.53 60 1012.0
20260507204507 15 248 1.6 4.8 0.00 0.71 0.53 60 1012.0
20260507204007 15 231 3.2 4.8 0.00 0.71 0.53 60 1012.0
20260507203508 15 275 1.6 3.2 0.00 0.71 0.53 60 1012.0
20260507203006 15 348 3.2 4.8 0.00 0.71 0.53 60 1012.0
20260507201506 15 252 3.2 4.8 0.00 0.71 0.53 58 1012.0
20260507201006 15 221 3.2 4.8 0.00 0.74 0.53 59 1012.0
20260507200008 15 180 1.6 3.2 0.00 0.74 0.53 60 1012.0
20260507195507 15 242 3.2 4.8 0.00 0.74 0.53 61 1012.0
20260507195008 15 219 4.8 9.7 0.00 0.74 0.53 63 1012.0
20260507194508 15 211 3.2 4.8 0.00 0.74 0.53 64 1012.0
20260507194008 15 267 4.8 9.7 0.00 0.76 0.53 67 1012.0
20260507193507 15 243 4.8 8.0 0.00 0.76 0.53 68 1012.0
20260507192508 14 227 3.2 8.0 0.00 0.79 0.53 72 1012.0
20260507192008 14 252 4.8 8.0 0.00 0.79 0.53 74 1012.0
20260507191506 14 232 3.2 4.8 0.00 0.79 0.53 74 1012.0
20260507191007 14 237 3.2 8.0 0.00 0.79 0.53 74 1012.0
20260507190509 14 242 4.8 8.0 0.00 0.81 0.53 74 1012.0
20260507190006 14 228 4.8 8.0 0.00 0.81 0.53 73 1012.0
20260507185507 15 237 4.8 8.0 0.00 0.84 0.53 73 1012.0
20260507185007 15 243 4.8 8.0 0.00 0.86 0.53 72 1012.0
20260507184507 15 257 4.8 8.0 0.00 0.86 0.53 72 1012.0
20260507184007 15 232 4.8 8.0 0.00 0.86 0.53 72 1012.0
20260507183507 15 246 3.2 4.8 0.00 0.86 0.53 72 1012.0
20260507183006 15 248 3.2 3.2 0.00 0.86 0.53 72 1012.0
20260507182508 15 225 1.6 3.2 0.00 0.86 0.53 72 1012.0
20260507181506 16 232 3.2 4.8 0.00 0.86 0.53 72 1012.0
20260507181006 16 229 3.2 4.8 0.00 0.86 0.53 71 1012.0
20260507180508 16 238 3.2 4.8 0.00 0.86 0.53 71 1012.0
20260507180006 16 248 3.2 4.8 0.00 0.86 0.53 70 1012.0
20260507175507 16 0 0.0 3.2 0.00 0.86 0.53 69 1012.0
20260507175009 17 291 3.2 3.2 0.00 0.86 0.53 68 1012.0
20260507174506 17 310 0.0 1.6 0.00 0.86 0.53 69 1012.0
20260507174008 17 248 0.0 1.6 0.00 0.86 0.53 68 1012.0
20260507173509 17 248 1.6 3.2 0.00 0.86 0.53 67 1012.0
20260507173007 17 248 1.6 3.2 0.00 0.86 0.53 66 1012.0
20260507172506 17 312 0.0 3.2 0.00 0.86 0.53 65 1012.0
20260507172007 17 0 0.0 1.6 0.00 0.86 0.53 64 1012.0
20260507171507 17 0 0.0 1.6 0.00 0.86 0.53 64 1012.0
20260507171007 18 0 0.0 1.6 0.00 0.86 0.53 63 1012.0
20260507165508 18 0 0.0 1.6 0.00 0.86 0.53 61 1012.0
20260507164506 18 180 1.6 3.2 0.00 0.86 0.53 60 1012.0
20260507164008 18 180 0.0 3.2 0.00 0.86 0.53 59 1012.0
20260507163509 18 175 0.0 3.2 0.00 0.86 0.53 59 1012.0
20260507163006 18 202 1.6 3.2 0.00 0.86 0.53 59 1012.0
20260507162506 18 224 1.6 3.2 0.00 0.86 0.53 60 1012.0
20260507161508 18 343 3.2 4.8 0.00 0.86 0.53 60 1012.0
20260507161008 18 148 0.0 4.8 0.00 0.86 0.53 61 1012.0
20260507160506 18 149 1.6 4.8 0.00 0.86 0.53 61 1012.0
20260507160006 18 182 3.2 4.8 0.00 0.86 0.53 61 1012.0
20260507155508 18 180 1.6 3.2 0.00 0.86 0.53 61 1012.0
20260507155007 18 180 1.6 4.8 0.00 0.86 0.53 61 1012.0
20260507154507 18 186 3.2 4.8 0.00 0.86 0.53 61 1012.0
20260507154009 18 188 3.2 3.2 0.00 0.86 0.53 61 1012.0
20260507153508 18 159 1.6 3.2 0.00 0.86 0.53 61 1012.0
20260507153006 18 202 0.0 3.2 0.00 0.86 0.53 61 1012.0
20260507152506 18 243 3.2 4.8 0.00 0.86 0.53 61 1012.0
20260507152010 18 158 3.2 3.2 0.00 0.86 0.53 62 1012.0
20260507151507 18 185 3.2 8.0 0.00 0.86 0.53 63 1012.0
20260507150506 18 138 3.2 8.0 0.00 0.86 0.53 64 1013.0
20260507150008 18 90 3.2 4.8 0.00 0.86 0.53 64 1013.0
20260507145505 18 143 3.2 4.8 0.00 0.86 0.53 65 1013.0
20260507145007 18 182 0.0 1.6 0.00 0.86 0.53 65 1013.0
20260507144007 18 189 1.6 3.2 0.00 0.86 0.53 64 1013.0
20260507143006 18 182 3.2 4.8 0.00 0.86 0.53 64 1013.0
20260507142507 18 180 0.0 8.0 0.00 0.86 0.53 64 1013.0
20260507142006 18 135 3.2 4.8 0.00 0.86 0.53 63 1013.0
20260507141008 18 188 3.2 8.0 0.00 0.86 0.53 60 1013.0
20260507140505 19 176 4.8 8.0 0.00 0.86 0.53 59 1013.0
20260507140006 20 160 3.2 4.8 0.00 0.86 0.53 57 1013.0
20260507135507 20 226 4.8 9.7 0.00 0.86 0.53 55 1012.0
20260507134006 21 120 4.8 8.0 0.00 0.86 0.53 55 1013.0
20260507133507 20 57 3.2 9.7 0.00 0.86 0.53 56 1013.0
20260507133006 20 124 3.2 9.7 0.00 0.86 0.53 56 1013.0
20260507132008 20 143 3.2 4.8 0.00 0.86 0.53 55 1014.0
20260507131505 20 90 4.8 8.0 0.00 0.86 0.53 56 1014.0
20260507131006 20 158 1.6 3.2 0.00 0.86 0.53 57 1014.0
20260507130506 19 238 1.6 3.2 0.00 0.86 0.53 57 1014.0
20260507130007 20 140 3.2 8.0 0.00 0.86 0.53 57 1014.0
20260507125505 20 195 1.6 4.8 0.00 0.86 0.53 57 1014.0
20260507124505 19 205 3.2 11.3 0.00 0.86 0.53 60 1014.0
20260507123506 19 157 3.2 4.8 0.00 0.86 0.53 60 1014.0
20260507122505 18 270 3.2 4.8 0.00 0.86 0.53 62 1015.0
20260507122007 18 90 3.2 3.2 0.00 0.86 0.53 62 1015.0
20260507121505 18 90 3.2 4.8 0.00 0.86 0.53 63 1015.0
20260507121006 18 124 3.2 4.8 0.00 0.86 0.53 62 1015.0
20260507120506 19 90 3.2 4.8 0.00 0.86 0.53 62 1015.0
20260507120008 19 90 4.8 9.7 0.00 0.86 0.53 63 1015.0
20260507115505 19 90 4.8 8.0 0.00 0.86 0.53 63 1015.0
20260507115006 19 141 3.2 8.0 0.00 0.86 0.53 64 1015.0
20260507114505 18 83 3.2 8.0 0.00 0.86 0.53 65 1015.0
20260507114008 18 90 3.2 4.8 0.00 0.86 0.53 66 1015.0
20260507113006 18 77 4.8 9.7 0.00 0.86 0.53 67 1015.0
20260507112505 18 96 4.8 9.7 0.00 0.86 0.53 67 1015.0
20260507111506 18 90 3.2 3.2 0.00 0.86 0.53 68 1015.0
20260507110007 18 73 4.8 9.7 0.00 0.86 0.53 70 1015.0
20260507105006 18 119 3.2 9.7 0.00 0.86 0.53 71 1015.0
20260507104007 17 90 4.8 8.0 0.00 0.86 0.53 73 1015.0
20260507103505 17 90 3.2 9.7 0.00 0.86 0.53 73 1015.0
20260507102506 17 90 3.2 9.7 0.00 0.86 0.53 74 1015.0
20260507102007 17 86 3.2 4.8 0.00 0.86 0.53 74 1015.0
20260507101507 17 90 4.8 8.0 0.00 0.86 0.53 75 1015.0
20260507101007 17 155 3.2 4.8 0.00 0.86 0.53 76 1015.0
20260507100006 17 269 1.6 8.0 0.00 0.86 0.53 76 1015.0
20260507095006 17 131 4.8 9.7 0.00 0.86 0.53 80 1015.0
20260507094005 17 167 3.2 9.7 0.00 0.86 0.53 81 1014.0
20260507093505 17 116 3.2 9.7 0.00 0.86 0.53 81 1014.0
20260507093006 16 187 4.8 8.0 0.00 0.86 0.53 83 1014.0
20260507092507 17 130 4.8 8.0 0.00 0.86 0.53 85 1015.0
20260507092006 17 152 4.8 4.8 0.00 0.86 0.53 87 1015.0
20260507091006 16 116 3.2 9.7 0.00 0.86 0.53 91 1015.0
20260507090507 16 66 3.2 8.0 0.00 0.86 0.53 92 1015.0
20260507090006 16 103 4.8 8.0 0.00 0.86 0.53 96 1015.0
20260507085506 16 108 3.2 8.0 0.00 0.86 0.53 97 1014.0
20260507085006 16 103 1.6 8.0 0.00 0.86 0.53 97 1014.0
20260507084006 15 97 4.8 8.0 0.00 0.86 0.53 97 1015.0
20260507083505 15 90 3.2 8.0 0.00 0.86 0.53 97 1015.0
20260507083006 15 90 4.8 8.0 0.00 0.86 0.53 97 1015.0
20260507082507 15 90 4.8 8.0 0.00 0.86 0.53 97 1015.0
20260507082006 14 90 4.8 8.0 0.00 0.86 0.53 97 1015.0
20260507081506 14 102 1.6 3.2 0.00 0.86 0.53 97 1015.0
20260507081007 13 158 3.2 3.2 0.00 0.86 0.53 97 1015.0
20260507080507 13 270 0.0 4.8 0.00 0.86 0.53 97 1015.0
20260507080005 13 282 0.0 4.8 0.00 0.86 0.53 97 1015.0
20260507075006 13 181 0.0 3.2 0.00 0.86 0.53 97 1015.0
20260507074508 13 45 0.0 1.6 0.00 0.86 0.53 97 1015.0
20260507071035 12 248 0.0 3.2 0.00 0.86 0.53 97 1015.0
20260507070033 12 112 1.6 4.8 0.00 0.86 0.53 97 1015.0
20260507065532 12 90 3.2 4.8 0.00 0.86 0.53 97 1015.0
20260507065034 12 90 3.2 3.2 0.00 0.86 0.53 97 1015.0
20260507064033 12 90 0.0 0.0 0.00 0.86 0.53 97 1015.0
20260507063035 12 90 0.0 0.0 0.00 0.86 0.53 97 1015.0
20260507062532 12 90 0.0 0.0 0.00 0.86 0.53 97 1015.0
20260507062033 12 90 0.0 1.6 0.00 0.86 0.53 97 1015.0
20260507061533 12 90 1.6 3.2 0.00 0.86 0.53 97 1015.0
20260507061035 12 97 1.6 4.8 0.00 0.86 0.53 97 1015.0
20260507060533 12 90 4.8 4.8 0.00 0.86 0.53 97 1015.0
20260507060033 12 248 0.0 0.0 0.00 0.86 0.53 97 1015.0
20260507055534 12 248 0.0 1.6 0.00 0.86 0.53 97 1015.0
20260507055035 11 253 1.6 3.2 0.00 0.89 0.53 97 1015.0
20260507054532 12 266 0.0 3.2 0.00 0.89 0.53 97 1015.0
20260507054033 12 135 1.6 3.2 0.00 0.89 0.53 97 1015.0
20260507053533 11 135 1.6 3.2 0.00 0.89 0.53 97 1015.0
20260507053035 11 270 0.0 3.2 0.00 0.89 0.53 97 1015.0
20260507052532 11 310 3.2 3.2 0.00 0.89 0.53 97 1015.0
20260507052033 11 90 0.0 3.2 0.00 0.89 0.53 97 1015.0
20260507051532 11 90 3.2 4.8 0.00 0.89 0.53 97 1015.0
20260507050532 11 87 1.6 3.2 0.00 0.89 0.53 97 1015.0
20260507045532 11 84 1.6 3.2 0.00 0.89 0.53 97 1015.0
20260507044532 11 90 1.6 3.2 0.00 0.91 0.53 97 1015.0
20260507044033 11 90 1.6 3.2 0.00 0.94 0.53 97 1014.0
20260507043533 11 66 3.2 3.2 0.00 0.94 0.53 97 1014.0
20260507043034 11 90 3.2 4.8 0.00 0.97 0.53 97 1014.0
20260507042533 11 90 3.2 4.8 0.00 0.97 0.53 97 1015.0
20260507042033 11 68 0.0 1.6 0.00 0.97 0.53 97 1015.0
20260507041034 11 45 0.0 0.0 0.00 0.97 0.53 97 1014.0
20260507040533 11 45 0.0 0.0 0.00 0.97 0.53 97 1014.0
20260507040033 11 45 1.6 1.6 0.00 0.97 0.53 97 1014.0
20260507035034 11 90 0.0 3.2 0.00 0.99 0.53 97 1014.0
20260507034533 11 90 0.0 3.2 0.00 0.99 0.53 97 1014.0
20260507034033 11 89 3.2 4.8 0.00 0.99 0.53 97 1014.0
20260507033532 11 90 3.2 4.8 0.00 1.02 0.53 97 1014.0
20260507033034 11 90 3.2 3.2 0.00 1.02 0.53 96 1014.0
20260507032531 11 90 1.6 3.2 0.00 1.02 0.53 96 1014.0
20260507032032 11 90 1.6 3.2 0.00 1.02 0.53 96 1014.0
20260507031532 11 68 1.6 3.2 0.00 1.02 0.53 96 1014.0
20260507031034 11 68 0.0 3.2 0.00 1.02 0.53 96 1014.0
20260507030532 11 270 1.6 3.2 0.00 1.02 0.53 96 1014.0
20260507030033 11 0 0.0 0.0 0.00 1.02 0.53 96 1014.0
20260507025532 11 0 0.0 3.2 0.00 1.02 0.53 96 1014.0
20260507025034 11 0 0.0 3.2 0.00 1.02 0.53 96 1014.0
20260507024533 11 0 0.0 0.0 0.03 1.02 0.53 96 1014.0
20260507024033 11 0 0.0 1.6 0.05 1.02 0.53 96 1014.0
20260507023532 11 22 0.0 1.6 0.05 1.02 0.53 96 1014.0
20260507023035 11 225 0.0 1.6 0.08 1.02 0.53 96 1014.0
20260507022532 11 116 0.0 1.6 0.10 1.02 0.53 96 1014.0
20260507021035 11 248 0.0 0.0 0.10 1.02 0.53 95 1014.0